EW3721 Weather Reports


Display with metric or nautical units.
time (UTC)temp
F
wind
direction
speed
MPH
gust
MPH
rain 1hr
in
rain 24hr
in
rain mn
in
humidity
%
barometer
mb
20260905042604 64 222 1.0 2.0 0.00 0.66 0.00 94 1010.7
20260905042105 64 222 0.0 0.0 0.00 0.66 0.00 94 1010.6
20260905041605 64 222 0.0 2.0 0.00 0.66 0.00 94 1010.7
20260905041104 64 220 0.0 2.0 0.00 0.66 0.00 94 1010.7
20260905040605 64 220 0.0 1.0 0.00 0.66 0.00 94 1010.7
20260905040104 64 220 0.0 1.0 0.00 0.66 0.00 94 1010.7
20260905035605 64 220 0.0 1.0 0.00 0.66 0.66 94 1010.7
20260905034605 64 220 0.0 0.0 0.00 0.66 0.66 94 1010.6
20260905033604 64 220 0.0 0.0 0.00 0.66 0.66 94 1010.6
20260905033104 64 220 0.0 0.0 0.00 0.66 0.66 94 1010.6
20260905032605 64 220 0.0 0.0 0.00 0.66 0.66 94 1010.6
20260905032105 64 220 0.0 0.0 0.00 0.66 0.66 94 1010.6
20260905031604 65 220 0.0 0.0 0.00 0.66 0.66 94 1010.6
20260905031105 65 220 0.0 0.0 0.00 0.66 0.66 94 1010.6
20260905030604 65 220 0.0 0.0 0.00 0.66 0.66 94 1010.6
20260905025604 65 220 0.0 0.0 0.00 0.66 0.66 94 1010.5
20260905025104 65 220 0.0 0.0 0.00 0.66 0.66 94 1010.5
20260905024605 65 220 0.0 0.0 0.00 0.66 0.66 93 1010.4
20260905024104 65 220 0.0 0.0 0.00 0.66 0.66 93 1010.4
20260905023605 65 220 0.0 0.0 0.00 0.66 0.66 93 1010.4
20260905023104 65 220 0.0 0.0 0.00 0.66 0.66 93 1010.6
20260905022605 65 220 0.0 0.0 0.00 0.66 0.66 93 1010.6
20260905022105 65 220 0.0 0.0 0.00 0.66 0.66 93 1010.6
20260905021105 65 220 0.0 0.0 0.00 0.66 0.66 93 1010.5
20260905020605 65 220 0.0 0.0 0.00 0.66 0.66 93 1010.6
20260905020105 66 220 0.0 0.0 0.00 0.66 0.66 93 1010.6
20260905015605 66 220 0.0 0.0 0.00 0.66 0.66 93 1010.6
20260905014605 66 220 0.0 0.0 0.00 0.66 0.66 92 1010.6
20260905014104 66 220 0.0 0.0 0.00 0.66 0.66 92 1010.5
20260905013604 66 220 0.0 0.0 0.00 0.66 0.66 92 1010.5
20260905012604 66 220 0.0 0.0 0.00 0.66 0.66 91 1010.6
20260905012104 66 220 0.0 0.0 0.00 0.66 0.66 91 1010.5
20260905011605 66 220 0.0 0.0 0.00 0.66 0.66 91 1010.6
20260905010604 66 220 0.0 0.0 0.00 0.66 0.66 91 1010.5
20260905005605 67 220 0.0 0.0 0.00 0.66 0.66 90 1010.6
20260905005105 67 219 0.0 0.0 0.00 0.66 0.66 90 1010.6
20260905004606 67 219 0.0 0.0 0.00 0.66 0.66 90 1010.7
20260905004105 67 219 0.0 0.0 0.00 0.66 0.66 89 1010.6
20260905003104 68 219 0.0 0.0 0.00 0.66 0.66 89 1010.6
20260905002604 68 219 0.0 0.0 0.00 0.66 0.66 88 1010.6
20260905002104 68 219 0.0 0.0 0.00 0.66 0.66 87 1010.5
20260905001104 69 219 0.0 0.0 0.00 0.66 0.66 87 1010.4
20260905000605 70 219 0.0 0.0 0.00 0.66 0.66 86 1010.4
20260905000104 70 219 0.0 0.0 0.00 0.66 0.66 86 1010.3
20260904235605 70 219 0.0 0.0 0.00 0.66 0.66 86 1010.3
20260904235104 70 220 0.0 0.0 0.00 0.66 0.66 85 1010.3
20260904234604 71 220 0.0 0.0 0.00 0.66 0.66 85 1010.2
20260904234105 71 220 0.0 0.0 0.00 0.66 0.66 85 1010.2
20260904233604 71 219 0.0 0.0 0.00 0.66 0.66 85 1010.2
20260904232604 71 220 0.0 0.0 0.00 0.66 0.66 84 1010.2
20260904232105 72 220 0.0 0.0 0.00 0.66 0.66 84 1010.2
20260904231604 72 220 0.0 0.0 0.00 0.66 0.66 84 1010.2
20260904231104 73 220 0.0 0.0 0.00 0.66 0.66 83 1010.2
20260904230605 73 220 0.0 0.0 0.00 0.66 0.66 83 1010.1
20260904230105 73 220 0.0 0.0 0.00 0.66 0.66 81 1010.1
20260904225604 73 220 0.0 0.0 0.00 0.66 0.66 80 1010.2
20260904225104 74 219 0.0 0.0 0.00 0.66 0.66 78 1010.2
20260904224604 74 220 0.0 0.0 0.00 0.66 0.66 78 1010.2
20260904223604 75 219 0.0 0.0 0.00 0.66 0.66 77 1010.2
20260904223105 75 220 0.0 0.0 0.00 0.66 0.66 75 1010.2
20260904222604 75 219 0.0 2.0 0.00 0.66 0.66 74 1010.2
20260904222105 76 220 1.0 2.0 0.00 0.66 0.66 74 1010.2
20260904221604 76 219 1.0 2.0 0.00 0.66 0.66 72 1010.1
20260904221104 76 219 0.0 2.0 0.00 0.66 0.66 71 1010.1
20260904220604 77 219 1.0 2.0 0.00 0.66 0.66 69 1010.1
20260904215605 78 220 1.0 2.0 0.00 0.66 0.66 67 1010.0
20260904215104 79 219 1.0 3.0 0.00 0.66 0.66 66 1010.1
20260904214605 79 239 1.0 2.0 0.00 0.66 0.66 65 1010.1
20260904214105 80 131 0.0 2.0 0.00 0.66 0.66 64 1010.1
20260904213605 81 131 1.0 2.0 0.00 0.66 0.66 63 1010.0
20260904213104 81 207 1.0 3.0 0.00 0.66 0.66 61 1010.0
20260904212604 82 252 1.0 3.0 0.00 0.66 0.66 59 1010.0
20260904212104 82 235 1.0 5.0 0.00 0.66 0.66 59 1010.0
20260904211604 82 226 1.0 3.0 0.00 0.66 0.66 62 1010.0
20260904211105 82 223 0.0 1.0 0.00 0.66 0.66 60 1010.1
20260904210605 82 223 1.0 2.0 0.00 0.66 0.66 59 1010.1
20260904210104 82 221 1.0 2.0 0.00 0.66 0.66 60 1010.1
20260904205605 82 248 2.0 6.0 0.00 0.66 0.66 58 1010.2
20260904205105 82 227 2.0 3.0 0.00 0.66 0.66 55 1010.2
20260904204604 82 207 1.0 3.0 0.00 0.66 0.66 60 1010.2
20260904204105 82 164 2.0 5.0 0.00 0.66 0.66 59 1010.2
20260904203605 82 157 1.0 3.0 0.00 0.66 0.66 60 1010.2
20260904203104 82 195 0.0 5.0 0.00 0.66 0.66 61 1010.2
20260904202604 82 208 3.0 9.0 0.00 0.66 0.66 58 1010.1
20260904202104 82 68 3.0 7.0 0.00 0.66 0.66 59 1010.1
20260904201604 82 204 3.0 9.0 0.00 0.66 0.66 58 1010.2
20260904201104 82 175 3.0 9.0 0.00 0.66 0.66 58 1010.3
20260904200604 82 241 2.0 6.0 0.00 0.66 0.66 61 1010.3
20260904200105 82 225 1.0 3.0 0.00 0.66 0.66 63 1010.2
20260904195604 82 137 1.0 3.0 0.00 0.66 0.66 60 1010.2
20260904195105 83 238 3.0 8.0 0.00 0.66 0.66 59 1010.2
20260904194605 83 230 1.0 3.0 0.00 0.66 0.66 57 1010.3
20260904194104 84 208 1.0 6.0 0.00 0.66 0.66 59 1010.3
20260904193604 84 138 3.0 8.0 0.00 0.66 0.66 56 1010.3
20260904193104 84 189 2.0 6.0 0.00 0.66 0.66 61 1010.3
20260904192604 84 147 3.0 12.0 0.00 0.66 0.66 58 1010.3
20260904192104 84 138 4.0 9.0 0.00 0.66 0.66 57 1010.3
20260904191104 84 187 3.0 8.0 0.00 0.66 0.66 54 1010.4
20260904190604 84 193 2.0 9.0 0.00 0.66 0.66 55 1010.4
20260904190105 84 182 2.0 3.0 0.00 0.66 0.66 59 1010.5
20260904185605 83 240 1.0 3.0 0.00 0.66 0.66 60 1010.5
20260904185104 83 220 2.0 6.0 0.00 0.66 0.66 58 1010.6
20260904184604 83 165 1.0 6.0 0.00 0.66 0.66 58 1010.6
20260904184105 83 207 2.0 6.0 0.00 0.66 0.66 58 1010.6
20260904183104 83 215 3.0 7.0 0.00 0.66 0.66 56 1010.6
20260904182104 83 215 2.0 13.0 0.00 0.66 0.66 63 1010.6
20260904181604 83 247 2.0 8.0 0.00 0.66 0.66 58 1010.5
20260904181104 82 141 3.0 8.0 0.00 0.66 0.66 59 1010.5
20260904180605 82 261 2.0 5.0 0.00 0.66 0.66 60 1010.5
20260904180104 82 142 3.0 7.0 0.00 0.66 0.66 58 1010.5
20260904175604 82 141 4.0 12.0 0.00 0.66 0.66 60 1010.5
20260904175105 82 201 6.0 13.0 0.00 0.66 0.66 57 1010.5
20260904174604 82 169 4.0 10.0 0.00 0.66 0.66 57 1010.3
20260904174105 82 242 3.0 12.0 0.00 0.66 0.66 61 1010.3
20260904173104 82 208 3.0 8.0 0.00 0.66 0.66 61 1010.5
20260904172604 82 180 2.0 7.0 0.00 0.66 0.66 61 1010.4
20260904171604 81 189 3.0 12.0 0.00 0.66 0.66 62 1010.4
20260904171104 82 156 3.0 12.0 0.00 0.66 0.66 59 1010.5
20260904170604 82 143 3.0 5.0 0.00 0.66 0.66 63 1010.4
20260904170104 82 176 2.0 7.0 0.00 0.66 0.66 62 1010.4
20260904165605 81 224 3.0 10.0 0.00 0.66 0.66 61 1010.7
20260904165105 81 147 3.0 9.0 0.00 0.66 0.66 60 1010.6
20260904164604 81 150 2.0 5.0 0.00 0.66 0.66 63 1010.7
20260904164104 81 162 5.0 12.0 0.00 0.66 0.66 62 1010.7
20260904163604 82 228 3.0 9.0 0.00 0.66 0.66 63 1010.7
20260904163104 82 178 5.0 10.0 0.00 0.66 0.66 61 1010.6
20260904162104 81 247 3.0 9.0 0.00 0.66 0.66 65 1010.7
20260904161604 82 143 3.0 12.0 0.00 0.66 0.66 63 1010.6
20260904161104 81 244 5.0 9.0 0.00 0.66 0.66 62 1010.7
20260904160104 80 205 3.0 12.0 0.00 0.66 0.66 66 1010.9
20260904155104 80 182 3.0 7.0 0.00 0.66 0.66 67 1011.0
20260904154604 80 155 1.0 5.0 0.00 0.66 0.66 71 1011.1
20260904154104 80 150 2.0 5.0 0.00 0.66 0.66 67 1011.1
20260904153604 80 157 3.0 7.0 0.00 0.66 0.66 70 1011.1
20260904153104 79 199 3.0 9.0 0.00 0.66 0.66 69 1011.2
20260904152604 79 209 4.0 12.0 0.00 0.66 0.66 66 1011.2
20260904151604 79 154 5.0 12.0 0.00 0.66 0.66 71 1011.3
20260904151105 79 214 4.0 13.0 0.00 0.66 0.66 69 1011.3
20260904150604 79 205 5.0 9.0 0.00 0.66 0.66 71 1011.3
20260904150104 79 158 3.0 9.0 0.00 0.66 0.66 74 1011.3
20260904145604 79 186 4.0 8.0 0.00 0.66 0.66 75 1011.2
20260904145103 79 216 2.0 12.0 0.00 0.66 0.66 77 1011.2
20260904144104 78 159 2.0 10.0 0.00 0.66 0.66 79 1011.2
20260904143603 78 186 2.0 10.0 0.00 0.66 0.66 83 1011.3
20260904143104 78 197 2.0 10.0 0.00 0.66 0.66 82 1011.3
20260904142605 78 160 2.0 9.0 0.00 0.66 0.66 83 1011.4
20260904141104 77 180 2.0 3.0 0.00 0.66 0.66 87 1011.2
20260904140604 76 166 1.0 3.0 0.00 0.66 0.66 89 1011.2
20260904140104 76 177 1.0 6.0 0.00 0.66 0.66 92 1011.2
20260904135105 75 144 2.0 9.0 0.00 0.66 0.66 93 1011.2
20260904134604 74 155 3.0 8.0 0.00 0.66 0.66 95 1011.2
20260904134103 74 211 1.0 5.0 0.00 0.66 0.66 96 1011.1
20260904133604 74 166 1.0 3.0 0.00 0.66 0.66 97 1011.1
20260904133104 74 144 1.0 6.0 0.00 0.66 0.66 97 1011.1
20260904132604 74 142 1.0 3.0 0.00 0.66 0.66 97 1011.1
20260904132104 74 245 1.0 3.0 0.00 0.66 0.66 98 1011.1
20260904131104 73 247 2.0 3.0 0.00 0.66 0.66 97 1011.3
20260904130604 73 287 1.0 3.0 0.00 0.66 0.66 98 1011.2
20260904130104 73 131 0.0 3.0 0.00 0.66 0.66 98 1011.2
20260904125604 73 240 0.0 2.0 0.00 0.66 0.66 98 1011.1
20260904125104 73 140 1.0 3.0 0.00 0.66 0.66 98 1011.1
20260904124604 72 143 0.0 3.0 0.00 0.66 0.66 98 1011.2
20260904124104 72 167 1.0 3.0 0.00 0.66 0.66 98 1011.1
20260904123604 72 198 1.0 2.0 0.00 0.66 0.66 98 1011.0
20260904123103 72 198 0.0 1.0 0.00 0.66 0.66 98 1011.1
20260904122604 71 198 0.0 1.0 0.00 0.66 0.66 98 1011.1
20260904122104 71 198 0.0 1.0 0.00 0.66 0.66 98 1011.1
20260904121104 70 198 1.0 2.0 0.00 0.66 0.66 98 1011.1
20260904120604 70 142 1.0 2.0 0.00 0.66 0.66 98 1011.2
20260904120104 70 143 1.0 2.0 0.00 0.66 0.66 98 1011.1
20260904115604 70 143 0.0 1.0 0.00 0.66 0.66 97 1011.1
20260904115104 69 143 0.0 1.0 0.00 0.66 0.66 97 1011.1
20260904114103 69 143 0.0 0.0 0.00 0.66 0.66 98 1010.9
20260904113603 69 143 1.0 3.0 0.00 0.66 0.66 98 1010.8
20260904113103 69 142 0.0 1.0 0.00 0.66 0.66 97 1010.8
20260904112604 69 142 1.0 3.0 0.00 0.66 0.66 97 1010.8
20260904112103 69 142 0.0 3.0 0.00 0.66 0.66 97 1010.8
20260904111603 69 142 1.0 3.0 0.00 0.66 0.66 97 1010.7
20260904111104 69 244 1.0 2.0 0.00 0.66 0.66 97 1010.6
20260904110607 69 244 0.0 1.0 0.00 0.66 0.66 97 1010.4
20260904110107 69 244 0.0 1.0 0.00 0.66 0.66 97 1010.4
20260904105107 69 138 0.0 1.0 0.00 0.66 0.66 97 1010.5
20260904104606 69 138 0.0 3.0 0.00 0.66 0.66 97 1010.4
20260904104106 69 221 0.0 0.0 0.00 0.66 0.66 97 1010.3
20260904103606 69 221 0.0 0.0 0.00 0.66 0.66 97 1010.3
20260904102607 69 221 0.0 1.0 0.00 0.66 0.66 97 1010.3
20260904102106 69 221 0.0 1.0 0.00 0.66 0.66 97 1010.2
20260904101606 69 221 0.0 0.0 0.00 0.66 0.66 97 1010.2
20260904101107 69 221 0.0 0.0 0.00 0.66 0.66 97 1010.2
20260904100606 69 221 1.0 1.0 0.00 0.66 0.66 97 1010.1
20260904100106 69 221 0.0 1.0 0.00 0.66 0.66 97 1010.1
20260904095106 69 221 0.0 0.0 0.01 0.66 0.66 97 1010.1
20260904092606 69 221 1.0 1.0 0.04 0.66 0.66 97 1010.0
20260904092107 70 221 0.0 1.0 0.06 0.66 0.66 97 1009.9
20260904091606 70 221 1.0 1.0 0.22 0.66 0.66 97 1009.9
20260904091106 70 221 0.0 1.0 0.42 0.66 0.66 97 1009.9
20260904090607 70 221 0.0 2.0 0.56 0.66 0.66 97 1009.9
20260904090106 70 221 2.0 3.0 0.64 0.66 0.66 97 1009.8
20260904085606 70 221 1.0 3.0 0.65 0.66 0.66 97 1009.4
20260904085106 70 209 1.0 2.0 0.64 0.65 0.65 97 1009.2
20260904084107 70 209 1.0 2.0 0.65 0.65 0.65 97 1009.6
20260904083606 70 209 0.0 2.0 0.64 0.64 0.64 97 1009.8
20260904083107 70 235 1.0 3.0 0.64 0.64 0.64 97 1009.9
20260904082606 70 147 1.0 5.0 0.62 0.62 0.62 97 1009.8
20260904082106 70 173 1.0 5.0 0.60 0.60 0.60 97 1010.0
20260904081607 71 139 1.0 5.0 0.44 0.44 0.44 97 1010.2
20260904080606 71 186 2.0 10.0 0.10 0.10 0.10 97 1010.8
20260904080106 71 221 0.0 0.0 0.02 0.02 0.02 97 1010.3
20260904075606 71 221 0.0 0.0 0.01 0.01 0.01 97 1010.0
20260904074606 71 221 0.0 0.0 0.00 0.00 0.00 97 1009.9
20260904074106 71 221 0.0 0.0 0.00 0.00 0.00 97 1010.0
20260904073607 70 221 0.0 0.0 0.00 0.00 0.00 97 1010.2
20260904073106 70 221 0.0 0.0 0.00 0.00 0.00 97 1010.1
20260904072107 70 221 0.0 0.0 0.00 0.01 0.00 97 1010.1
20260904071107 70 221 0.0 0.0 0.00 0.01 0.00 97 1010.3
20260904070606 70 221 0.0 0.0 0.00 0.01 0.00 97 1010.4
20260904065607 70 221 0.0 0.0 0.00 0.01 0.00 97 1010.3
20260904064606 70 221 0.0 0.0 0.00 0.02 0.00 97 1010.4
20260904064106 70 221 0.0 0.0 0.00 0.02 0.00 97 1010.4
20260904063606 70 221 0.0 0.0 0.00 0.02 0.00 97 1010.5
20260904063106 70 221 0.0 0.0 0.00 0.02 0.00 96 1010.6
20260904062607 70 221 0.0 0.0 0.00 0.02 0.00 96 1010.6
20260904062107 70 221 0.0 0.0 0.00 0.03 0.00 96 1010.7
20260904061606 70 221 0.0 0.0 0.00 0.04 0.00 96 1010.7
20260904061107 70 221 0.0 0.0 0.00 0.05 0.00 96 1010.6
20260904060607 70 221 0.0 0.0 0.00 0.08 0.00 96 1010.6
20260904060107 70 221 0.0 0.0 0.00 0.17 0.00 96 1010.7
20260904055607 70 221 0.0 0.0 0.00 0.29 0.00 96 1010.8
20260904055107 70 221 0.0 0.0 0.00 0.42 0.00 96 1010.8
20260904054607 70 221 0.0 0.0 0.00 0.46 0.00 96 1010.9
20260904053106 70 221 0.0 0.0 0.00 0.48 0.00 96 1011.0
20260904052607 70 221 0.0 0.0 0.00 0.48 0.00 96 1011.1
20260904051606 70 221 0.0 0.0 0.00 0.48 0.00 96 1011.2
20260904051106 70 221 0.0 0.0 0.00 0.48 0.00 96 1011.4
20260904050107 70 221 0.0 0.0 0.00 0.48 0.00 95 1011.5
20260904045607 70 221 0.0 0.0 0.00 0.48 0.00 95 1011.6
20260904045106 70 221 0.0 0.0 0.00 0.48 0.00 95 1011.5
20260904044607 70 221 0.0 0.0 0.00 0.48 0.00 95 1011.4
20260904044106 70 221 0.0 0.0 0.00 0.48 0.00 95 1011.5
20260904043606 70 221 0.0 0.0 0.00 0.48 0.00 95 1011.6
20260904043107 70 221 0.0 0.0 0.00 0.48 0.00 95 1011.5